Regional Weather Roundup
Issued by NWS

Home | Current Version | Previous Version | Graphics & Text | Print | Product List | Glossary On
Versions: 1 2 3 4 5 6 7 8 9 10 11 12 13 14 15 16 17 18 19 20 21 22 23 24 25 26 27 28 29 30 31 32 33 34 35 36 37 38 39 40 41 42 43 44 45 46 47 48 49 50
000
ASUS43 KDMX 241008
RWRIA

WEATHER ROUNDUP FOR IOWA
NATIONAL WEATHER SERVICE DES MOINES IA
500 AM CDT TUE MAY 24 2016

NOTE: "FAIR" INDICATES FEW OR NO CLOUDS BELOW 12,000 FEET WITH NO
SIGNIFICANT WEATHER AND/OR OBSTRUCTIONS TO VISIBILITY.

* - THESE STATIONS ARE NOT NWS STATIONS...THUS NOT UNDER NWS
QUALITY CONTROL.  THEY ALSO DO NOT REPORT WEATHER SUCH
AS PRECIPITATION OR FOG.

IAZ001>003-012>014-020>022-031>034-043>046-241100-
   NORTHWEST IOWA

CITY           SKY/WX    TMP DP  RH WIND       PRES   REMARKS
CARROLL *      CLEAR     63  59  88 S8        29.85R
CHEROKEE *     CLOUDY    59  59 100 S6        29.85S
DENISON *      CLEAR     61  59  94 SE5       29.83F
LE MARS *      CLEAR     63  61  94 S8        29.84S
ORANGE CITY *  CLEAR     61  61 100 S8        29.84S
SHELDON *      CLEAR     61  61 100 S9        29.83R
SIOUX CITY     CLOUDY    61  58  90 CALM      29.83F
SPENCER        CLOUDY    62  58  86 S12       29.84R
STORM LAKE *   CLEAR     61  59  94 SW9       29.86F
$$

IAZ055>058-069>071-079>083-090>094-241100-
   SOUTHWEST IOWA

CITY           SKY/WX    TMP DP  RH WIND       PRES   REMARKS
ATLANTIC *     CLEAR     61  61 100 CALM      29.85S
AUDUBON *      CLEAR     61  57  88 S3        29.86S
CLARINDA *       N/A     64  63  94 MISG      29.88S
COUNCIL BLFS * MOCLDY    61  59  94 SE5       29.84S
CRESTON *      PTCLDY    63  61  94 S9        29.89S
HARLAN  *        N/A    N/A N/A N/A MISG        N/A
LAMONI         TSTM      63  61  93 S10       29.89F
RED OAK *      CLOUDY    64  63  94 S10       29.84F
SHENANDOAH *   CLOUDY    64  64 100 E6        29.86R
$$

IAZ047>049-059>061-072>074-084-241100-
   CENTRAL IOWA

CITY           SKY/WX    TMP DP  RH WIND       PRES   REMARKS
AMES           CLOUDY    62  61  96 S6        29.87S
ANKENY *       MOCLDY    63  63 100 CALM      29.88F
BOONE *        CLOUDY    63  61  94 S3        29.85F
CHARITON *     CLOUDY    64  61  88 S5        29.90F
DES MOINES     CLOUDY    65  62  90 S3        29.88F
GRINNELL*      CLOUDY    63  59  88 CALM      29.91S
KNOXVILLE *    MOCLDY    64  61  88 CALM      29.90S
MARSHALLTOWN   CLOUDY    64  62  93 SW8       29.88R
NEWTON *       CLOUDY    64  64 100 CALM      29.90S
PELLA *        MOCLDY    64  59  82 S3        29.92S
PERRY *        CLOUDY    63  61  94 S10       29.86S
$$

IAZ004>006-015-016-023>025-035-036-241100-
   NORTH CENTRAL IOWA

CITY           SKY/WX    TMP DP  RH WIND       PRES   REMARKS
ALGONA *       CLEAR     63  59  88 SW10      29.85S
CLARION *      CLOUDY    63  61  94 S13       29.85R
ESTHERVILLE    CLOUDY    61  59  93 SW9       29.84R
FORT DODGE *   CLOUDY    59  55  88 CALM      29.85F
MASON CITY     LGT RAIN  64  61  90 SW18      29.85S
FOREST CITY *  LGT RAIN  63  61  94 SW10      29.85R
WEBSTER CITY * LGT RAIN  61  61 100 E5        29.83F
IOWA FALLS *   LGT RAIN  64  59  82 SW9       29.88F
$$

IAZ007>011-017>019-026>030-037>042-050>054-066-241100-
   NORTHEAST IOWA

CITY           SKY/WX    TMP DP  RH WIND       PRES   REMARKS
CEDAR RAPIDS   CLOUDY    65  56  72 SW10      29.91R
CHARLES CITY * MOCLDY    64  61  88 S13       29.87S
CLINTON *      PTCLDY    61  51  70 S8        29.93S
DECORAH *      CLEAR     64  54  68 VRB6      29.86R
DUBUQUE        CLOUDY    60  51  72 SW8       29.92R
MONTICELLO *   CLOUDY    64  52  63 S6        29.91R
OELWEIN *      CLOUDY    66  57  72 SW14G22   29.89R
WATERLOO       CLOUDY    64  60  87 SW8       29.87S
$$

IAZ064-065-067-068-078-241100-
   EAST CENTRAL IOWA

CITY           SKY/WX    TMP DP  RH WIND       PRES   REMARKS
DAVENPORT      MOCLDY    66  51  58 S9        29.93R
IOWA CITY      CLOUDY    64  53  67 CALM      29.93R
MT. PLEASANT * CLOUDY    64  55  72 S6        29.93R
MUSCATINE *    CLEAR     64  52  63 S5        29.92R
QUAD CITIES    MOCLDY    63  51  65 CALM      29.92R
$$

IAZ062-063-075>077-085>089-095>099-241100-
   SOUTHEAST IOWA

CITY           SKY/WX    TMP DP  RH WIND       PRES   REMARKS
BURLINGTON     MOCLDY    63  55  75 S5        29.93R
FAIRFIELD *      N/A    N/A N/A N/A MISG        N/A
FORT MADISON * CLEAR     63  55  77 S6        29.94R
KEOKUK *       CLEAR     64  55  72 S3        29.92S
OSKALOOSA *    CLOUDY    63  59  88 SW5       29.92S
OTTUMWA        CLOUDY    65  57  75 SW5       29.91R
WASHINGTON *   CLOUDY    64  55  72 W7        29.94R
$$

ABBREVIATIONS USED IN REMARKS
   TC - TEMPERATURES IN CELSIUS
  WCI - WIND CHILL INDEX
   HX - HEAT INDEX
  VSB - VISIBILITY
$$




USA.gov is the U.S. government's official web portal to all federal, state and local government web resources and services.